Location: Unspecified
(0.0000°N, 0.0000°E)
Time: 15:49:32
(UTC+00:00)

IRIDIUM 114 - Pass Details

Date: 20 November 2025
Orbit: 776 x 779 km, 86.4° (Epoch: 12 December)

Event Time Altitude Azimuth Distance (km) Brightness Sun altitude
Exits shadow 18:46:51 18° 92° (E) 1,805 5.7 -14.3°
Drops below altitude 10° 18:50:14 10° 133° (SE) 2,324 6.5 -15.1°
Sets 18:53:15 0° 151° (SSE) 3,254 7.5 -15.8°
